Location: Brompton
(51.4000°N, 0.5333°E)
Time: 07:20:08
(UTC+00:00)

BREEZE M DEB (TANK) - Pass Details

Date: 11 May 2021
Orbit: 340 x 13618 km, 49.6° (Epoch: 12 June)

Event Time Altitude Azimuth Distance (km) Brightness Sun altitude
Rises 20:32:35 0° 253° (WSW) 2,667 6.8 -7.8°
Reaches altitude 10° 20:33:59 10° 251° (WSW) 2,050 6.1 -7.9°
Maximum altitude 20:38:10 75° 166° (SSE) 1,179 4.3 -8.4°
Drops below altitude 10° 20:53:20 10° 85° (E) 6,866 8.0 -10.1°
Sets 21:03:08 0° 86° (E) 10,115 8.9 -11.1°
